Hourly Data Report for May 12, 2004

SHERBROOKE A
QUEBEC

45°26'00.000" N
71°41'00.000" W
241.40 m
7028124
71610
YSC

Download Data

Hourly Data (May 2004)
Hourly Data Report for May 12, 2004
TIME
LST
Temp Definition
°C
Dew Point Definition
°C
Rel Hum Definition
%
Precip. Amount Definition
mm

Wind Dir Definition
10's deg

Wind Spd Definition
km/h
Visibility Definition
km
Stn Press Definition
kPa
Hmdx Definition


Wind Chill Definition


Weather Definition


00:00 5.7 4.4 91   13 7 15.0 99.19      
01:00 5.5 4.5 93   10 4 11.3 99.25      
02:00 5.5 4.3 92   8 4 15.0 99.23      
03:00 4.4 3.0 91     0 12.9 99.21      
04:00 3.8 2.6 92     0 15.0 99.25      
05:00 4.4 3.3 93   8 6 12.9 99.30      
06:00 7.2 5.4 88   6 6 15.0 99.33      
07:00 11.1 6.8 75   8 4 24.1 99.37     Mainly Clear
08:00 14.9 6.5 57   8 6 24.1 99.37     Mainly Clear
09:00 17.6 7.0 50   9 6 24.1 99.33     Mainly Clear
10:00 20.3 6.0 39     0 24.1 99.26     Mainly Clear
11:00 22.2 7.9 40   23 11 24.1 99.13     Mainly Clear
12:00 22.3 9.0 43   27 13 24.1 99.15     Mainly Clear
13:00 23.5 9.3 40   28 15 24.1 99.11     Mostly Cloudy
14:00 23.7 10.1 42   30 19 24.1 99.05 25   Mostly Cloudy
15:00 22.5 8.5 41   32 9 24.1 99.03     Mostly Cloudy
16:00 23.0 7.9 38   31 15 24.1 98.99     Mainly Clear
17:00 22.3 7.9 40   31 6 15.0 98.99      
18:00 21.3 8.0 42     0 15.0 98.99      
19:00 19.3 8.2 49   8 6 15.0 99.04      
20:00 18.1 5.4 43   3 11 15.0 99.12      
21:00 16.0 3.4 43   3 20 15.0 99.20      
22:00 14.4 2.0 43   5 11 15.0 99.22      
23:00 14.0 2.4 45   3 13 15.0 99.29     Rain

Notes on Data Quality.

Legend

  • E = Estimated
  • M = Missing
  • NA = Not Available*
  • [empty] = Indicates an unobserved value
Date modified: